Weather History for Poplar Bluff, MO

Change the Weather History Date:

Thursday, March 7, 2013

  Actual Average Record
Temperature  
Mean Temperature 38 °F -  
Max Temperature 48 °F 56 °F 80 °F (1925)
Min Temperature 28 °F 32 °F 6 °F (1943)
Degree Days  
Heating Degree Days 27    
Moisture  
Dew Point 29 °F    
Average Humidity 71    
Maximum Humidity 86    
Minimum Humidity 56    
Precipitation  
Precipitation 0.00 in - - ()
Sea Level Pressure  
Sea Level Pressure 30.37 in    
Wind  
Wind Speed 4 mph (East)    
Max Wind Speed 7 mph    
Max Gust Speed -    
Visibility 10 miles    
Events      
Averages and records for this station are not official NWS values.
T = Trace of Precipitation, MM = Missing Value Source: NWS Daily Summary

Daily Weather History Graph

Daily Weather History Graph

Search for Another Location

Airport:

Trip Planner

Search our weather history database for the weather conditions in past years. The results will help you decide how hot, cold, wet, or windy it might be!

Date:

Astronomy

Mar. 07, 2013 Rise Set
Actual Time 6:23 AM CST 6:01 PM CST
Civil Twilight 5:57 AM CST 6:27 PM CST
Nautical Twilight 5:27 AM CST 6:57 PM CST
Astronomical Twilight 4:57 AM CST 7:27 PM CST
Moon 3:17 AM CST (3/7) 1:54 PM CST (3/7)
Length of Visible Light 12h 29m
Length of Day
11h 38m
Waning Crescent, 20% of the Moon is Illuminated
Mar 7
Waning Crescent
Mar 11
New
Mar 19
First Quarter
Mar 27
Full
Apr 2
Last Quarter

Hourly Weather History & Observations

Time (CST) Temp. Windchill Dew Point Humidity Pressure Visibility Wind Dir Wind Speed Gust Speed Precip Events Conditions
12:53 AM 30.9 °F 27.5 °F 27.0 °F 85% 30.34 in 10.0 mi NE 3.5 mph - N/A   Clear
1:53 AM 30.9 °F 27.5 °F 26.1 °F 82% 30.36 in 10.0 mi NNW 3.5 mph - N/A   Clear
2:53 AM 28.9 °F - 24.1 °F 82% 30.36 in 10.0 mi Calm Calm - N/A   Clear
3:53 AM 30.0 °F 26.5 °F 24.1 °F 79% 30.36 in 10.0 mi North 3.5 mph - N/A   Partly Cloudy
4:53 AM 32.0 °F 27.5 °F 26.1 °F 79% 30.38 in 10.0 mi North 4.6 mph - N/A   Overcast
5:53 AM 32.0 °F 26.4 °F 26.1 °F 79% 30.38 in 10.0 mi NE 5.8 mph - N/A   Mostly Cloudy
6:53 AM 32.0 °F 28.7 °F 26.1 °F 79% 30.40 in 10.0 mi NNE 3.5 mph - N/A   Partly Cloudy
7:53 AM 34.0 °F - 27.0 °F 75% 30.41 in 10.0 mi Calm Calm - N/A   Clear
8:53 AM 37.0 °F 32.4 °F 28.0 °F 70% 30.43 in 10.0 mi East 5.8 mph - N/A   Clear
9:53 AM 39.0 °F 36.8 °F 28.0 °F 65% 30.43 in 10.0 mi Variable 3.5 mph - N/A   Scattered Clouds
10:53 AM 41.0 °F 37.1 °F 30.0 °F 65% 30.42 in 10.0 mi Variable 5.8 mph - N/A   Mostly Cloudy
11:08 AM 42.8 °F 40.1 °F 30.2 °F 61% 30.40 in 10.0 mi SE 4.6 mph - N/A   Scattered Clouds
11:53 AM 42.1 °F 39.2 °F 30.0 °F 62% 30.42 in 10.0 mi Variable 4.6 mph - N/A   Clear
12:53 PM 44.1 °F 42.5 °F 30.9 °F 60% 30.38 in 10.0 mi Variable 3.5 mph - N/A   Clear
1:53 PM 45.0 °F - 30.9 °F 58% 30.36 in 10.0 mi Calm Calm - N/A   Clear
2:53 PM 46.9 °F - 32.0 °F 56% 30.35 in 10.0 mi SSE 4.6 mph - N/A   Clear
3:53 PM 48.0 °F - 33.1 °F 56% 30.33 in 10.0 mi South 6.9 mph - N/A   Clear
4:53 PM 46.9 °F - 32.0 °F 56% 30.32 in 10.0 mi SSE 4.6 mph - N/A   Clear
5:53 PM 45.0 °F 41.8 °F 33.1 °F 63% 30.32 in 10.0 mi ESE 5.8 mph - N/A   Clear
6:53 PM 42.1 °F 39.2 °F 33.1 °F 70% 30.34 in 10.0 mi ESE 4.6 mph - N/A   Clear
7:53 PM 42.1 °F 39.2 °F 32.0 °F 67% 30.33 in 10.0 mi ESE 4.6 mph - N/A   Clear
8:53 PM 37.0 °F - 32.0 °F 82% 30.33 in 10.0 mi Calm Calm - N/A   Clear
9:53 PM 37.0 °F - 33.1 °F 86% 30.35 in 8.0 mi Calm Calm - N/A   Clear
10:53 PM 36.0 °F 33.3 °F 32.0 °F 86% 30.34 in 8.0 mi NE 3.5 mph - N/A   Clear
11:53 PM 36.0 °F 33.3 °F 30.0 °F 79% 30.35 in 10.0 mi ENE 3.5 mph - N/A   Clear